Tracking 29892 objects as of 21-Nov-2024
HD Live streaming from Space Station
objects crossing your sky now

STARLINK-30978

Track STARLINK-30978 now!
10-day predictions
STARLINK-30978 is classified as:


NORAD ID: 58490
Int'l Code: 2023-186T
Perigee: 565.0 km
Apogee: 567.4 km
Inclination: 43.0 °
Period: 95.8 minutes
Semi major axis: 6937 km
RCS: Unknown
Launch date: December 3, 2023
Source: United States (US)
Launch site: AIR FORCE EASTERN TEST RANGE (AFETR)
Your satellite tracking list
Your tracking list is empty




NASA's NSSDC Master Catalog

Two Line Element Set (TLE):
1 58490U 23186T   24325.83760176  .00001451  00000-0  12243-3 0  9996
2 58490  43.0036 122.0739 0001661 273.4935  86.5718 15.02542414 54748
Source of the keplerian elements: AFSPC